Location: *
(49.1063°S, 176.5550°W)
Time: 21:32:12
(UTC+00:00)

Daily predictions for brighter satellites

Satellite Brightness Start Highest point End
(mag) Time Altitude Azimuth Time Altitude Azimuth Time Altitude Azimuth
Cosmos 2263 Rocket 4.2 15:22:53 23° ENE 15:22:53 23° ENE 15:25:11 10° ENE
Cosmos 1980 Rocket 3.7 15:35:06 33° ESE 15:35:06 33° ESE 15:39:00 10° SE
SL-16 R/B 4.4 15:47:49 10° S 15:49:28 19° S 15:49:28 19° S
SeaSat 1 3.2 16:09:41 10° NE 16:14:02 51° ESE 16:14:02 51° ESE
S3M 4.1 16:17:53 37° S 16:20:30 75° E 16:26:47 10° NNE
SL-16 R/B 4.3 16:20:52 10° NNE 16:25:24 25° ENE 16:29:59 10° SE
USA 234 3.1 16:19:04 10° SE 16:25:43 83° SSW 16:26:20 74° W
Cosmos 1697 Rocket 3.8 16:30:03 32° S 16:30:03 32° S 16:33:19 10° SSE
Cosmos 2266 Rocket 4.0 16:30:51 10° N 16:36:56 76° E 16:43:04 10° SSE
Cosmos 1417 Rocket 4.4 16:41:05 64° WSW 16:41:44 68° W 16:48:04 10° N
Cosmos 1844 Rocket 4.0 16:38:48 21° S 16:41:53 36° SE 16:47:02 10° ENE
SMAP 3.7 16:37:33 10° NNE 16:42:08 55° ESE 16:44:17 30° S
Blok-L 3.8 16:42:20 81° ENE 16:42:20 81° ENE 16:49:26 10° NE
Exosat Rocket 3.9 16:42:08 44° S 16:43:38 65° ESE 16:49:19 10° NE
Blok-ML 4.3 16:53:40 69° SW 16:54:11 88° SE 17:06:13 10° NE
SJ-11-01 4.3 16:49:41 10° NNE 16:54:25 79° ESE 16:56:12 39° S
Cosmos-2242 4.3 16:52:53 10° NNE 16:57:01 42° E 17:01:13 10° SSE
Cosmos 2369 3.7 16:58:24 59° W 16:58:55 61° WSW 17:04:39 10° SSE
BREEZE-M DEB (TANK) 2.7 17:00:04 51° ENE 17:00:04 51° ENE 17:01:54 10° E
DNEPR-1 R/B 3.5 17:02:35 64° S 17:02:59 70° SE 17:07:10 10° NE
Cosmos 2263 Rocket 2.6 17:04:38 42° NW 17:04:38 42° NW 17:09:16 10° N
Cosmos 2278 3.7 17:02:50 10° NNW 17:08:34 84° ENE 17:14:21 10° SSE
Genesis I 4.3 17:11:30 32° N 17:11:30 32° N 17:13:55 10° NNE
ARGOS 3.2 17:06:02 10° N 17:11:23 55° W 17:13:07 39° SW
Cosmos 883 Rocket 4.4 17:07:03 10° SSW 17:13:12 66° W 17:19:17 10° N
Cosmos 1544 4.1 17:13:48 20° SSE 17:15:48 43° ESE 17:19:05 10° NNE
Cosmos 1992 Rocket 4.3 17:13:05 19° SSW 17:16:53 67° ESE 17:22:06 10° NNE
Cosmos 1980 Rocket 2.5 17:16:55 42° WSW 17:17:42 44° SW 17:23:13 10° SSE
CBERS 1 LM4 rocket 4.3 17:14:02 10° NNE 17:18:56 87° ESE 17:23:03 14° SSW
CZ-4 R/B 4.4 17:18:08 10° ESE 17:19:36 12° ESE 17:21:05 10° SE
Cosmos 1666 3.7 17:16:51 13° S 17:20:05 45° ESE 17:23:38 10° NNE
SL-24 R/B 4.3 17:16:06 10° NNE 17:20:44 82° WNW 17:26:16 10° SSW
SL-08 R/B 4.4 17:20:49 10° SSE 17:25:20 46° E 17:29:48 10° N
AQUARIUS 4.1 17:23:53 10° N 17:28:23 70° WNW 17:31:36 19° SSW
Cosmos 2315 Rocket 4.0 17:23:55 10° SSW 17:30:02 56° W 17:36:07 10° NNW
CZ-2C R/B 4.1 17:26:42 10° S 17:28:52 19° SSW 17:28:52 19° SSW
CENTAUR R/B 4.4 17:26:45 10° N 17:34:12 38° ENE 17:40:35 10° SE
ISS -3.8 17:34:51 58° W 17:35:26 78° NNW 17:38:51 10° ENE
BREEZE-M DEB (TANK) 1.9 17:35:26 45° NNW 17:35:47 51° NNE 17:38:56 10° E
SL-16 R/B 4.4 17:33:10 10° SSW 17:34:33 13° SSW 17:34:33 13° SSW
CZ-4B R/B 4.0 17:32:50 10° NNW 17:37:38 38° W 17:39:40 27° SW
Timation 2 Rocket 4.0 17:35:22 24° SW 17:38:59 55° WNW 17:45:04 10° N
YAOGAN 1 4.4 17:35:27 10° NE 17:39:15 30° ESE 17:43:05 10° S
Cosmos 614 Rocket 4.4 17:34:26 10° N 17:39:32 65° ENE 17:44:39 10° SSE
SL-08 RB Rocket 4.3 17:37:28 10° NNW 17:41:35 35° W 17:42:34 31° WSW
Cosmos 1242 Rocket 2.7 17:43:59 41° W 17:44:12 42° W 17:47:26 10° NNW
Cosmos 2237 4.3 17:39:36 10° NNW 17:45:21 83° ENE 17:51:10 10° SSE
Cosmos 1655 Rocket 4.2 17:39:41 10° NW 17:45:38 45° WSW 17:51:43 10° S
Cosmos 1602 3.5 17:44:57 14° SSW 17:48:10 74° W 17:51:56 10° N
Cosmos 1782 4.2 17:47:36 10° NNE 17:51:20 41° E 17:55:08 10° SSE
SeaSat 1 3.4 17:47:56 10° NNW 17:52:11 28° WNW 17:53:47 24° WSW
Cosmos 1818 3.8 17:49:20 18° WNW 17:53:09 47° SW 17:58:26 10° SSE
Cosmos 1461 2.6 17:51:10 26° SW 17:53:15 80° NW 17:57:14 10° NNE
Meteor PRIRODA 3.5 17:49:58 10° N 17:53:36 66° WNW 17:56:47 13° SSW
Cosmos 1766 Rocket 4.1 17:49:06 10° S 17:53:38 64° ESE 17:58:05 10° NNE
NOAA 6 4.0 17:50:53 10° N 17:56:03 71° WNW 18:01:17 10° SSW
Cosmos 44 3.7 17:54:38 26° WSW 17:56:15 34° WNW 18:00:08 10° N
Helios 1A 4.0 17:54:10 10° S 17:57:32 24° WSW 17:57:32 24° WSW
Meteor 1-20 Rocket 4.2 17:55:55 10° SSW 18:01:36 73° W 18:07:20 10° N
Cosmos 1500 3.6 18:01:15 18° SW 18:03:35 37° W 18:07:01 10° NNW
Meteor 1-25 Rocket 4.2 18:01:59 10° SSW 18:07:41 75° W 18:13:16 10° N
USA 234 3.7 18:02:04 10° ESE 18:08:23 49° S 18:13:41 15° W
SL-16 R/B 2.2 18:03:26 10° NW 18:09:04 62° WSW 18:14:48 10° SSE
CZ-4B R/B 3.1 18:07:59 10° N 18:12:14 65° W 18:16:41 10° SSW
Cosmos 2322 Rocket 2.1 18:06:47 10° NNW 18:12:26 80° WSW 18:18:09 10° SSE
Cosmos 1697 Rocket 4.3 18:11:49 14° SW 18:13:06 15° SSW 18:16:18 10° S
Cosmos 1844 3.8 18:07:43 10° SSW 18:13:31 66° WNW 18:19:15 10° NNE
Okean O Rocket 3.5 18:10:28 10° NE 18:14:16 29° ESE 18:18:06 10° S
DELTA 2 DEB (DPAF) 4.1 18:14:36 10° SSE 18:19:03 83° WSW 18:23:27 10° NNW
Cosmos 2360 Rocket 2.3 18:13:54 10° NNW 18:19:35 85° ENE 18:25:21 10° SSE
SMAP 4.4 18:16:18 10° NW 18:19:49 21° W 18:22:45 13° SW
Cosmos 2221 2.6 18:18:55 10° N 18:23:19 86° E 18:27:43 10° S
USA 186 4.5 18:21:28 10° ENE 18:23:49 18° ESE 18:26:12 10° SSE
Cosmos 1844 Rocket 3.0 18:20:34 10° SW 18:25:55 46° WNW 18:31:13 10° N
PAYLOAD B 4.5 18:20:32 10° NNE 18:26:07 78° ESE 18:31:49 10° SSW
Cosmos 2333 Rocket 2.5 18:25:54 10° NNW 18:31:33 76° ENE 18:37:18 10° SSE
COSMO-SKYMED 1 2.7 18:27:39 10° S 18:32:00 54° WSW 18:36:17 10° NNW
Cosmos 1269 Rocket 4.3 18:28:55 10° NW 18:34:03 47° WSW 18:39:15 10° SSE
SL-4 R/B 3.0 18:30:08 10° NW 18:34:32 56° NNE 18:39:10 10° ESE
Cosmos-2242 4.2 18:31:08 10° WNW 18:34:39 23° WSW 18:38:13 10° SSW
SJ-6B 4.3 18:31:24 10° NE 18:34:50 34° ESE 18:38:17 10° S
Cosmos 1933 3.4 18:31:44 10° NNW 18:35:48 64° WSW 18:39:56 10° S
Meteor 1-26 Rocket 4.5 18:30:50 10° N 18:36:30 80° E 18:42:25 10° SSE
Cosmos 2333 4.4 18:34:35 10° NNW 18:40:13 81° ENE 18:45:59 10° SSE
USA 81 4.2 18:38:18 10° SSW 18:43:32 55° W 18:48:42 10° NNW
Cosmos 2219 Rocket 2.8 18:38:07 10° NNW 18:43:40 65° ENE 18:49:17 10° SSE
ADEOS 4.5 18:39:50 10° NNW 18:44:24 30° W 18:49:02 10° SW
Cosmos 1812 3.3 18:42:03 10° NW 18:45:33 35° WSW 18:49:07 10° S
CZ-4B R/B 3.4 18:45:34 10° NNE 18:51:17 88° ESE 18:56:59 10° SSW
Cosmos 1743 Rocket 4.4 18:47:59 10° S 18:52:29 55° ESE 18:56:55 10° NNE
CZ-4 R/B 1.5 18:49:41 10° NNE 18:53:42 88° E 18:57:53 10° SSW
Cosmos 1666 4.3 18:52:31 10° SW 18:54:44 15° W 18:56:56 10° WNW
Meteor 2-20 4.5 18:48:42 10° SSW 18:54:50 70° W 19:00:55 10° N
NOSS 3-3 (A) 4.0 18:51:58 10° SW 18:58:36 78° NW 19:04:13 10° NNE
NOSS 3-3 (C) 4.0 18:52:04 10° SW 18:58:41 79° NW 19:04:18 10° NE
